Retour au catalogue

COSMOS 2251 DEB

ActifLEO
NORAD 33948·DEBRIS·🇷🇺 Russia

Lancé Jun 16, 1993 depuis Plesetsk Cosmodrome

Loading…

Prochains Passages (prochaines 24 heures)

TLE

FraisSource: Space-Track

Époque: Sep 14, 2026, 17:31 UTC

1 33948U 93036FD  26257.73009407  .00000254  00000-0  96241-4 0  9997
2 33948  74.0361 158.6459 0023372 173.5580 186.5878 14.35871581919841

Suivez COSMOS 2251 DEB en temps réel avec AllMySat

Download on the App Store